Location: La Trinit�
(48.1620°N, 3.4512°W)
Time: 09:40:55
(UTC+00:00)

USA 307 - Pass Details

Date: 08 May 2021
Orbit: 566 x 577 km, 54.0° (Epoch: 10 May)

Event Time Altitude Azimuth Distance (km) Brightness Sun altitude
Rises 21:00:33 0° 292° (WNW) 2,775 7.8 -12.0°
Reaches altitude 10° 21:02:54 10° 299° (WNW) 1,878 6.9 -12.3°
Maximum altitude 21:06:58 41° 11° (N) 835 4.0 -12.8°
Drops below altitude 10° 21:11:02 10° 83° (E) 1,881 5.2 -13.3°
Enters shadow 21:11:25 - 84° (E) 2,026 5.3 -13.3°
